This demonstration page uses our WeatherBlox Daily Observations layout. Learn more.

Hourly Observations for October 20, 2019

Temp ( °F °C ) Dew Point ( °F °C ) Humidity (%) Winds ( mph kmh ) Pressure ( in mb ) Visibility ( mi km ) Precip ( " mm )
12:54 am 00:54 Clear 47 8.3 37 2.8 69 69 SSE 7 11 29.77 1008 10 16.09344 0 0
1:54 am 01:54 Clear 46 7.8 37 2.8 71 71 SSE 6 9 29.77 1008 10 16.09344 0 0
2:54 am 02:54 Clear 45 7.2 37 2.8 74 74 SSE 5 7 29.77 1008 10 16.09344 0 0
3:54 am 03:54 Clear 45 7.2 37 2.8 74 74 S 3 6 29.77 1008 10 16.09344 0 0
4:54 am 04:54 Clear 45 7.2 38 3.3 77 77 SE 5 7 29.74 1007 10 16.09344 0 0
5:54 am 05:54 Clear 46 7.8 40 4.4 79 79 S 5 7 29.77 1008 10 16.09344 0 0
6:54 am 06:54 Clear 47 8.3 42 5.6 83 83 SSE 7 11 29.74 1007 10 16.09344 0 0
7:54 am 07:54 Sunny 48 8.9 44 6.7 86 86 SSE 8 13 29.74 1007 10 16.09344 0 0
8:54 am 08:54 Sunny 52 11.1 48 8.9 86 86 SSE 16 26 29.74 1007 10 16.09344 0 0
9:54 am 09:54 Sunny 56 13.3 48 8.9 75 75 SE 17 28 29.71 1006 10 16.09344 0 0
10:54 am 10:54 Sunny 60 15.6 46 7.8 60 60 SE 20 31 29.71 1006 10 16.09344 0 0
11:54 am 11:54 Mostly Cloudy 61 16.1 45 7.2 56 56 S 26 43 29.71 1006 10 16.09344 0 0
12:54 pm 12:54 Cloudy with Light Rain 59 15 47 8.3 64 64 SE 18 30 29.68 1005 10 16.09344 0.001 0.001
1:54 pm 13:54 Cloudy 61 16.1 46 7.8 58 58 SE 17 28 29.65 1004 10 16.09344 0.001 0.001
2:54 pm 14:54 Mostly Cloudy 62 16.7 45 7.2 54 54 SE 20 31 29.62 1003 10 16.09344 0 0
3:54 pm 15:54 Partly Cloudy 63 17.2 45 7.2 52 52 SSE 16 26 29.59 1002 10 16.09344 0 0
4:54 pm 16:54 Mostly Cloudy 63 17.2 45 7.2 52 52 SE 16 26 29.59 1002 10 16.09344 0 0
5:54 pm 17:54 Cloudy 62 16.7 44 6.7 52 52 SSE 16 26 29.59 1002 10 16.09344 0 0
6:54 pm 18:54 Cloudy 61 16.1 44 6.7 54 54 SE 16 26 29.59 1002 10 16.09344 0 0
7:54 pm 19:54 Cloudy 59 15 47 8.3 64 64 SSE 14 22 29.59 1002 10 16.09344 0.001 0.001
8:54 pm 20:54 Clear 55 12.8 46 7.8 72 72 SSE 9 15 29.59 1002 10 16.09344 0 0
9:54 pm 21:54 Mostly Clear 55 12.8 47 8.3 74 74 S 9 15 29.59 1002 10 16.09344 0 0
10:54 pm 22:54 Clear 52 11.1 47 8.3 83 83 S 10 17 29.56 1001 10 16.09344 0 0
11:54 pm 23:54 Clear 52 11.1 46 7.8 80 80 SSW 7 11 29.5 999 10 16.09344 0 0

Powered by AerisWeather